Hourly Data Report for September 27, 2020

OTTAWA INTL A
ONTARIO
Current Station Operator: NAVCAN

45°19'00.000" N
75°40'00.000" W
114.90 m
6106001
71628
YOW

Download Data

Hourly Data (September 2020)
Hourly Data Report for September 27, 2020
TIME Temp Definition
°C
Dew Point Definition
°C
Rel Hum Definition
%
Wind Dir Definition
10's deg

Wind Spd Definition
km/h
Visibility Definition
km
Stn Press Definition
kPa
Hmdx Definition


Wind Chill Definition


Weather Definition


00:00 17.4 14.6 84 17 13 24.1 99.75     LegendNANA
01:00 16.9 14.7 87 17 12 24.1 99.75     Mainly Clear
02:00 17.1 15.1 88 18 10 24.1 99.71     LegendNANA
03:00 17.2 15.3 88 18 14 24.1 99.67     LegendNANA
04:00 17.1 15.4 89 18 17 24.1 99.62     Mainly Clear
05:00 17.1 15.4 89 19 19 24.1 99.65     LegendNANA
06:00 16.8 15.3 91 18 14 24.1 99.63     LegendNANA
07:00 17.7 15.7 88 19 18 24.1 99.60     Mostly Cloudy
08:00 19.0 15.9 82 19 20 24.1 99.59     LegendNANA
09:00 20.7 16.4 76 19 24 24.1 99.57 26   LegendNANA
10:00 21.2 16.4 73 19 27 24.1 99.53 26   Mostly Cloudy
11:00 22.3 16.8 71 19 23 24.1 99.47 27   LegendNANA
12:00 23.8 17.0 65 18 27 24.1 99.44 29   LegendNANA
13:00 24.5 16.4 60 19 28 24.1 99.38 29   Mostly Cloudy
14:00 25.4 16.2 56 19 22 24.1 99.36 30   LegendNANA
15:00 25.9 16.1 54 18 22 24.1 99.36 31   LegendNANA
16:00 25.5 15.0 52 20 29 24.1 99.35 29   Mainly Clear
17:00 24.6 15.0 55 21 25 24.1 99.42 29   LegendNANA
18:00 22.6 15.1 62 21 14 24.1 99.45 27   LegendNANA
19:00 21.1 14.9 68 21 11 24.1 99.50 25   Mainly Clear
20:00 19.9 14.8 72 21 5 24.1 99.57     LegendNANA
21:00 20.0 14.8 72 20 6 24.1 99.59     LegendNANA
22:00 18.2 15.3 83 15 14 24.1 99.56     Clear
23:00 18.0 15.2 84 17 11 24.1 99.58     LegendNANA

Notes on Data Quality.

Legend

  • E = Estimated
  • M = Missing
  • NA = Not Available*
  • [empty] = Indicates an unobserved value
Date modified: